SPACEMOBILE-SSR04 DEB, 62372

Orbit data source: Space-Track

SPACEMOBILE-SSR04 DEB, 62372 is space debris in LEO originally from a launch on Thu, 12 Sep 2024 UTC launched from the Air Force Eastern Test Range (AFETR). Debris objects in space refer to the collection of defunct objects orbiting the Earth. Examples of debris include non-operational satellites, rocket bodies, and fragments generated from explosions, collisions, or faulty payload assembly.

Loading next visibility...
Identifier
62372, 2024-163J
Orbit
LEO
Country
Flag of USUS
Related business
Manufacturer
AST & Science
Mission
Spacecraft
Bus & Motor
BW3 LVA, Unknown motor
Mass
150 kg wet, 150 kg dry
Launch date (UTC)
2024-09-12 (1 year ago)
Launch vehicle
Unknown
Launch site
Air Force Eastern Test Range (AFETR)
Object type
Payload
Rocket body
Debris
Shape & HBR
Cyl, 3.8 m
Radar Cross Section
1.963 m², Large (>1 m²)

Expand to show TLE details & history
Last TLE update: 14 hours ago

TLE from 14 hours ago
0 SPACEMOBILE-SSR04 DEB
1 62372U 24163J   26035.60802558  .00023143  00000-0  67232-3 0  9992
2 62372  52.9857 176.4742 0006030 111.5705 248.5939 15.35383208 74557
Epoch: 2026-02-04T14:35Z
TLE epoch observation values (Epoch: 2026-02-04T14:35:33.410Z)
Latitude
0.00001°
Longitude
-177.18717°
Altitude
462.172 km
Speed
7.636 km/s
True Right ascension
11h 45m 53s
True Declination
0° 00' 00"
Sunlit
Object was in full shadow at epoch
Visualization orbit readout
Latitude
Unknown
Longitude
Unknown
Altitude
Unknown
Speed
Unknown
Apparent Right ascension
Unknown
Apparent Declination
Unknown
Sunlit
N/A
Visualization observer readout
Local Sidereal Time
06:41:54
Azimuth
Unknown
Elevation
Unknown
Doppler factor
Unknown
Orbital elements
Apogee altitude
464.191 km
Perigee altitude
455.944 km
Semi-major axis
6,838.205 km
Eccentricity
0.0006
Inclination
52.9857°
RAAN
176.4742°
Arg. of periapsis
111.5705°
True anomaly
248.52959°
Mean anomaly
248.5939°
Eccentric anomaly
248.56174°
Mean motion
3.83822 °/min
Orbital period
93.79 mins
BSTAR
0.00067232
Loading maneuver chart data...
Computing Atmospheric mass density...
Loading historical data...
Loading historical data...
Loading historical data...
Loading historical data...
Loading historical data...
Loading historical data...
Loading historical data...

Documentation

Showing up to 5 results
|